When you browse on this site, cookies collect data to enhance your experience and personalize the content and advertising you see.
Visit our Privacy Policy to learn more. By continuing to use the site, you agree to this use of cookies and data.
  • In Hungary
  • List of Countries
  • For 7 days
  • Water Temperature
  • Satellite Maps
  • Weather Map
  • News
  • Weather Widgets
  • user-avatar
    Login

    Hourly Weather Lienz

    Today, 24 March, Sunday

    Time Temperature Precipitation Wind Pressure Humidity
    00:00 +8°C° 0 mm 1 mps 698 mmHg 86%
    01:00 +8°C° 0 mm 1 mps 698 mmHg 84%
    02:00 +7°C° 0 mm 1 mps 698 mmHg 83%
    03:00 +7°C° 0 mm 1 mps 697 mmHg 83%
    04:00 +7°C° 0 mm 1 mps 697 mmHg 82%
    05:00 +7°C° 0 mm 1 mps 697 mmHg 80%
    06:00 +7°C° 0 mm 1 mps 697 mmHg 79%
    07:00 +7°C° 0 mm 1 mps 697 mmHg 77%
    08:00 +10°C° 0 mm 1 mps 697 mmHg 75%
    09:00 +12°C° 0 mm 1 mps 697 mmHg 73%
    10:00 +14°C° 0 mm 0 mps 697 mmHg 71%
    11:00 +15°C° 0 mm 0 mps 696 mmHg 69%
    12:00 +16°C° 0 mm 1 mps 696 mmHg 67%
    13:00 +18°C° 0 mm 1 mps 696 mmHg 65%
    14:00 +18°C° 0 mm 1 mps 695 mmHg 66%
    15:00 +16°C° 0 mm 1 mps 695 mmHg 67%
    16:00 +16°C° 0 mm 1 mps 695 mmHg 69%
    17:00 +14°C° 0 mm 1 mps 694 mmHg 74%
    18:00 +12°C° 0 mm 1 mps 694 mmHg 80%
    19:00 +10°C° 0 mm 1 mps 693 mmHg 85%
    20:00 +10°C° 0 mm 1 mps 694 mmHg 87%
    21:00 +9°C° 0 mm 2 mps 694 mmHg 89%
    22:00 +8°C° 0 mm 2 mps 694 mmHg 91%
    23:00 +8°C° 0 mm 2 mps 694 mmHg 91%

    Tomorrow, 25 March, Monday

    Time Temperature Precipitation Wind Pressure Humidity
    00:00 +8°C° 0 mm 2 mps 694 mmHg 92%
    01:00 +7°C° 0 mm 2 mps 694 mmHg 92%
    02:00 +7°C° 0 mm 2 mps 693 mmHg 92%
    03:00 +7°C° 0 mm 2 mps 693 mmHg 91%
    04:00 +7°C° 0 mm 2 mps 692 mmHg 91%
    05:00 +7°C° 0 mm 2 mps 692 mmHg 90%
    06:00 +7°C° 0 mm 2 mps 692 mmHg 89%
    07:00 +7°C° 0 mm 2 mps 692 mmHg 88%
    08:00 +8°C° 0 mm 2 mps 692 mmHg 83%
    09:00 +9°C° 0 mm 2 mps 692 mmHg 78%
    10:00 +10°C° 0 mm 2 mps 692 mmHg 73%
    11:00 +12°C° 0.1 mm 2 mps 692 mmHg 71%
    12:00 +12°C° 0.1 mm 2 mps 691 mmHg 70%
    13:00 +13°C° 0.1 mm 2 mps 691 mmHg 69%
    14:00 +10°C° 0.3 mm 2 mps 691 mmHg 71%
    15:00 +9°C° 0.3 mm 3 mps 690 mmHg 74%
    16:00 +8°C° 0.3 mm 3 mps 690 mmHg 76%
    17:00 +6°C° 0.4 mm 4 mps 690 mmHg 78%
    18:00 +4°C° 0.4 mm 4 mps 690 mmHg 80%
    19:00 +3°C° 0.4 mm 4 mps 690 mmHg 81%
    20:00 +1°C° 0.3 mm 4 mps 691 mmHg 83%
    21:00 0°C° 0.3 mm 4 mps 692 mmHg 84%
    22:00 -1°C° 0.3 mm 4 mps 693 mmHg 85%
    23:00 -1°C° 0.6 mm 4 mps 693 mmHg 84%

    Day after tomorrow, 26 March, Tuesday

    Time Temperature Precipitation Wind Pressure Humidity
    00:00 -2°C° 0.6 mm 4 mps 694 mmHg 83%
    01:00 -2°C° 0.6 mm 4 mps 695 mmHg 82%
    02:00 -2°C° 0.1 mm 4 mps 695 mmHg 81%
    03:00 -2°C° 0.1 mm 4 mps 696 mmHg 80%
    04:00 -1°C° 0.1 mm 3 mps 696 mmHg 80%
    05:00 -1°C° 0 mm 3 mps 696 mmHg 79%
    06:00 -1°C° 0 mm 3 mps 697 mmHg 79%
    07:00 -1°C° 0 mm 3 mps 697 mmHg 79%
    08:00 0°C° 0 mm 3 mps 697 mmHg 72%
    09:00 0°C° 0 mm 4 mps 698 mmHg 66%
    10:00 +3°C° 0 mm 4 mps 698 mmHg 59%
    11:00 +3°C° 0 mm 4 mps 698 mmHg 57%
    12:00 +4°C° 0 mm 3 mps 698 mmHg 55%
    13:00 +5°C° 0 mm 3 mps 698 mmHg 53%
    14:00 +5°C° 0 mm 3 mps 698 mmHg 55%
    15:00 +5°C° 0 mm 3 mps 698 mmHg 57%
    16:00 +5°C° 0 mm 3 mps 698 mmHg 59%
    17:00 +3°C° 0 mm 3 mps 698 mmHg 67%
    18:00 +2°C° 0 mm 2 mps 698 mmHg 75%
    19:00 +1°C° 0 mm 2 mps 698 mmHg 83%
    20:00 -1°C° 0 mm 2 mps 698 mmHg 84%
    21:00 -1°C° 0 mm 2 mps 699 mmHg 85%
    22:00 -2°C° 0 mm 2 mps 699 mmHg 86%
    23:00 -2°C° 0 mm 2 mps 699 mmHg 86%

    27 March, Wednesday

    Time Temperature Precipitation Wind Pressure Humidity
    00:00 -2°C° 0 mm 2 mps 699 mmHg 85%
    01:00 -3°C° 0 mm 2 mps 699 mmHg 85%
    02:00 -2°C° 0 mm 2 mps 699 mmHg 83%
    03:00 -2°C° 0 mm 2 mps 699 mmHg 82%
    04:00 -2°C° 0 mm 2 mps 699 mmHg 80%
    05:00 -1°C° 0 mm 2 mps 699 mmHg 79%
    06:00 -1°C° 0 mm 2 mps 699 mmHg 77%
    07:00 +1°C° 0 mm 2 mps 699 mmHg 76%
    08:00 +2°C° 0 mm 2 mps 700 mmHg 70%
    09:00 +4°C° 0 mm 2 mps 700 mmHg 64%
    10:00 +5°C° 0 mm 2 mps 700 mmHg 58%
    11:00 +6°C° 0 mm 2 mps 700 mmHg 58%
    12:00 +7°C° 0 mm 2 mps 700 mmHg 57%
    13:00 +8°C° 0 mm 2 mps 700 mmHg 57%
    14:00 +8°C° 0 mm 2 mps 700 mmHg 59%
    15:00 +8°C° 0 mm 2 mps 700 mmHg 61%
    16:00 +7°C° 0 mm 2 mps 699 mmHg 63%
    17:00 +6°C° 0 mm 2 mps 700 mmHg 70%
    18:00 +5°C° 0 mm 2 mps 700 mmHg 77%
    19:00 +3°C° 0 mm 2 mps 700 mmHg 84%
    20:00 +2°C° 0 mm 2 mps 700 mmHg 85%
    21:00 +2°C° 0 mm 2 mps 701 mmHg 87%
    22:00 +1°C° 0 mm 2 mps 701 mmHg 88%
    23:00 +1°C° 0 mm 2 mps 701 mmHg 88%

    28 March, Thursday

    Time Temperature Precipitation Wind Pressure Humidity
    00:00 -1°C° 0 mm 2 mps 701 mmHg 88%
    01:00 -1°C° 0 mm 2 mps 701 mmHg 87%
    02:00 -1°C° 0 mm 2 mps 701 mmHg 87%
    03:00 -1°C° 0 mm 2 mps 701 mmHg 87%
    04:00 -1°C° 0 mm 2 mps 701 mmHg 87%
    05:00 -1°C° 0 mm 2 mps 701 mmHg 85%
    06:00 +1°C° 0 mm 2 mps 701 mmHg 83%
    07:00 +1°C° 0 mm 2 mps 701 mmHg 82%
    08:00 +3°C° 0 mm 2 mps 701 mmHg 75%
    09:00 +5°C° 0 mm 2 mps 702 mmHg 68%
    10:00 +7°C° 0 mm 2 mps 702 mmHg 61%
    11:00 +8°C° 0 mm 2 mps 701 mmHg 60%
    12:00 +9°C° 0 mm 2 mps 701 mmHg 59%
    13:00 +9°C° 0 mm 2 mps 701 mmHg 58%
    14:00 +9°C° 0.1 mm 2 mps 701 mmHg 60%
    15:00 +9°C° 0.1 mm 2 mps 700 mmHg 61%
    16:00 +9°C° 0.1 mm 2 mps 700 mmHg 63%
    17:00 +7°C° 0.1 mm 2 mps 700 mmHg 71%
    18:00 +7°C° 0.1 mm 1 mps 700 mmHg 79%
    19:00 +5°C° 0.1 mm 1 mps 700 mmHg 86%
    20:00 +5°C° 0 mm 1 mps 700 mmHg 88%
    21:00 +4°C° 0 mm 1 mps 701 mmHg 90%
    22:00 +4°C° 0 mm 1 mps 701 mmHg 92%
    23:00 +3°C° 0 mm 1 mps 701 mmHg 92%

    29 March, Friday

    Time Temperature Precipitation Wind Pressure Humidity
    00:00 +3°C° 0 mm 1 mps 701 mmHg 92%
    01:00 +3°C° 0 mm 1 mps 701 mmHg 92%
    02:00 +2°C° 0 mm 1 mps 701 mmHg 92%
    03:00 +2°C° 0 mm 1 mps 701 mmHg 91%
    04:00 +1°C° 0 mm 1 mps 701 mmHg 91%
    05:00 +2°C° 0 mm 1 mps 701 mmHg 89%
    06:00 +2°C° 0 mm 1 mps 701 mmHg 86%
    07:00 +3°C° 0 mm 1 mps 701 mmHg 83%
    08:00 +5°C° 0 mm 1 mps 701 mmHg 74%
    09:00 +8°C° 0 mm 1 mps 701 mmHg 64%
    10:00 +10°C° 0 mm 1 mps 701 mmHg 54%
    11:00 +11°C° 0 mm 1 mps 701 mmHg 53%
    12:00 +12°C° 0 mm 1 mps 701 mmHg 51%
    13:00 +13°C° 0 mm 1 mps 701 mmHg 49%
    14:00 +12°C° 0 mm 1 mps 700 mmHg 50%
    15:00 +12°C° 0 mm 1 mps 700 mmHg 51%
    16:00 +12°C° 0 mm 1 mps 699 mmHg 52%
    17:00 +9°C° 0 mm 1 mps 699 mmHg 61%
    18:00 +7°C° 0 mm 1 mps 699 mmHg 70%
    19:00 +4°C° 0 mm 0 mps 699 mmHg 79%
    20:00 +4°C° 0 mm 1 mps 699 mmHg 81%
    21:00 +4°C° 0 mm 1 mps 699 mmHg 82%
    22:00 +4°C° 0 mm 1 mps 699 mmHg 83%
    23:00 +3°C° 0 mm 1 mps 699 mmHg 84%
    Show more